Regional Weather Roundup
Issued by NWS Goodland, KS

Home | Current Version | Previous Version | Graphics & Text | Print | Product List | Glossary On
Versions: 1 2 3 4 5 6 7 8 9 10 11 12 13 14 15 16 17 18 19 20 21 22 23 24 25 26 27 28 29 30 31 32 33 34 35 36 37 38 39 40 41 42 43 44 45 46 47 48 49 50
000
ASUS43 KGLD 042059
RWRGLD

GOODLAND FORECAST AREA HOURLY WEATHER ROUNDUP
NATIONAL WEATHER SERVICE GOODLAND KS
300 PM MDT WED MAY 04 2016

...OFFICIAL OBSERVATIONS...

CITY           SKY/WX    TMP DP  RH WIND       PRES   REMARKS
GOODLAND KS    SUNNY     75  39  27 VRB7      30.13F
HILL CITY KS   SUNNY     77  40  26 N14G20    30.10F
IMPERIAL NEB   SUNNY     75  37  25 N7        30.12F
MCCOOK NEB     SUNNY     76  42  29 N10G17    30.09F
AKRON CO       MOSUNNY   72  35  25 CALM      30.17F
BURLINGTON CO  MOSUNNY   74  35  24 SE6       30.16F
LIMON CO       SUNNY     72  35  25 VRB3      30.20F
$$

...UNOFFICIAL OBSERVATIONS...

CITY           SKY/WX    TMP DP  RH WIND       PRES   REMARKS
COLBY KS       SUNNY     73  48  40 NE7       30.14S
LENORA KS        N/A     73  32  22 MISG        N/A
NORTON KS      SUNNY     73  30  20 N9G17     30.09F
SHARON SPRINGS   N/A     76  47  35 N7          N/A
TRIBUNE KS     SUNNY     77  41  27 NW8       30.15F
KIT CARSON CO    N/A     75  41  30 MISG        N/A
YUMA CO          N/A     73  41  32 E7          N/A
$$



USA.gov is the U.S. government's official web portal to all federal, state and local government web resources and services.